THOR ABLESTAR DEB, 548

Orbit data source: Space-Track

THOR ABLESTAR DEB, 548 is space debris in LEO originally from a launch on Thu, 29 Jun 1961 UTC launched from the Air Force Eastern Test Range (AFETR). Debris objects in space refer to the collection of defunct objects orbiting the Earth. Examples of debris include non-operational satellites, rocket bodies, and fragments generated from explosions, collisions, or faulty payload assembly.

Loading next visibility...
Identifier
548, 1961-015GH
Orbit
LEO
Country
Flag of USUS
Related business
Manufacturer
Unknown
Mission
Spacecraft
Bus & Motor
Unknown
Mass
Unknown
Launch date (UTC)
1961-06-29 (64 years ago)
Launch vehicle
Unknown
Launch site
Air Force Eastern Test Range (AFETR)
Object type
Payload
Rocket body
Debris
Shape & HBR
Unknown
Radar Cross Section
Small (<0.1 m²)

Expand to show TLE details & history
Last TLE update: 5 hours ago

TLE from 5 hours ago
0 THOR ABLESTAR DEB
1 00548U 61015GH  25243.57040277  .00003094  00000-0  44763-3 0  9991
2 00548  66.6707  42.2172 0102783 334.6578  24.9519 14.74098789361104
Epoch: 2025-08-31T13:41Z
TLE epoch observation values (Epoch: 2025-08-31T13:41:22.799Z)
Latitude
-0.00001°
Longitude
-143.11625°
Altitude
584.812 km
Speed
7.603 km/s
True Right ascension
02h 48m 52s
True Declination
0° 00' 00"
Sunlit
Object was in full shadow at epoch
Visualization orbit readout
Latitude
Unknown
Longitude
Unknown
Altitude
Unknown
Speed
Unknown
Apparent Right ascension
Unknown
Apparent Declination
Unknown
Sunlit
N/A
Visualization observer readout
Local Sidereal Time
10:20:39
Azimuth
Unknown
Elevation
Unknown
Doppler factor
Unknown
Orbital elements
Apogee altitude
718.558 km
Perigee altitude
574.158 km
Semi-major axis
7,024.495 km
Eccentricity
0.01028
Inclination
66.6707°
RAAN
42.2172°
Arg. of periapsis
334.6578°
True anomaly
25.45461°
Mean anomaly
24.9519°
Eccentric anomaly
25.20267°
Mean motion
3.68655 °/min
Orbital period
97.65 mins
BSTAR
0.00044763
Loading maneuver chart data...
Computing Atmospheric mass density...

Documentation

Showing up to 5 results
|